This demonstration page uses our WeatherBlox Daily Observations layout. Learn more.

Left ArrowRight Arrow

Hourly Observations for May 29, 2019

Temp ( °F °C ) Dew Point ( °F °C ) Humidity (%) Winds ( mph kmh ) Pressure ( in mb ) Visibility ( mi km ) Precip ( " mm )
12:15 am 00:15 Cloudy 53 11.7 53 11.7 100 100 N 5 7 29.75 1007 7 11 N/A
12:35 am 00:35 Cloudy with Rain 54 12 54 12 100 100 NNE 5 7 29.75 1007 3 5 N/A
12:55 am 00:55 Cloudy with Drizzle 54 12 54 12 100 100 N 3 6 29.76 1008 3 5 N/A
1:15 am 01:15 Cloudy 53 11.8 53 11.8 100 100 NNW 7 11 29.77 1008 10 16 N/A
1:35 am 01:35 Cloudy 53 11.8 53 11.8 100 100 N 8 13 29.76 1008 7 11 N/A
1:55 am 01:55 Cloudy 53 11.6 53 11.6 100 100 N 7 11 29.75 1007 10 16 N/A
2:15 am 02:15 Cloudy 53 11.5 53 11.5 100 100 NNW 3 6 29.76 1008 10 16 N/A
2:35 am 02:35 Cloudy 53 11.7 53 11.7 100 100 NNW 6 9 29.76 1008 10 16 N/A
2:55 am 02:55 Cloudy 53 11.8 53 11.8 100 100 NW 3 6 29.76 1008 10 16 N/A
3:15 am 03:15 Cloudy 54 12 54 12 100 100 NNW 9 15 29.76 1008 7 11 N/A
3:35 am 03:35 Cloudy with Drizzle 53 11.6 53 11.6 100 100 N 9 15 29.76 1008 3 5 0.01 0.25
3:55 am 03:55 Cloudy 53 11.6 53 11.6 100 100 NNW 9 15 29.77 1008 10 16 0.01 0.25
4:15 am 04:15 Cloudy 53 11.7 53 11.6 99 99 NW 9 15 29.77 1008 10 16 N/A
4:35 am 04:35 Cloudy 53 11.6 52 11.3 98 98 NNW 10 17 29.78 1008 10 16 N/A
4:55 am 04:55 Cloudy 53 11.5 52 11.3 99 99 NNW 10 17 29.78 1008 7 11 N/A
5:15 am 05:15 Cloudy 53 11.5 52 11.1 97 97 NNW 10 17 29.78 1008 10 16 N/A
5:35 am 05:35 Cloudy 52 11.1 51 10.3 95 95 NNW 17 28 29.79 1009 10 16 N/A
5:55 am 05:55 Cloudy 52 11 50 10.1 94 94 NNW 20 31 29.79 1009 10 16 N/A
6:15 am 06:15 Cloudy 51 10.8 50 10.1 95 95 NNW 15 24 29.81 1009 10 16 N/A
6:35 am 06:35 Cloudy 51 10.7 50 10 95 95 NW 10 17 29.82 1010 10 16 N/A
6:55 am 06:55 Cloudy 51 10.5 50 9.8 95 95 NNW 15 24 29.83 1010 10 16 N/A
7:15 am 07:15 Cloudy 51 10.5 49 9.6 94 94 NNW 15 24 29.84 1010 10 16 N/A
7:35 am 07:35 Cloudy 51 10.5 49 9.7 95 95 NNW 14 22 29.85 1011 10 16 N/A
7:55 am 07:55 Cloudy 51 10.6 49 9.7 94 94 NNW 14 22 29.85 1011 10 16 N/A
8:15 am 08:15 Cloudy 52 11 50 9.8 92 92 NNW 13 20 29.85 1011 10 16 N/A
8:35 am 08:35 Cloudy 52 11 49 9.5 91 91 NW 14 22 29.86 1011 10 16 N/A
8:55 am 08:55 Cloudy 52 11 49 9.5 91 91 NNW 15 24 29.86 1011 10 16 N/A
9:15 am 09:15 Cloudy 52 11.2 49 9.6 90 90 NNW 16 26 29.87 1012 10 16 N/A
9:35 am 09:35 Cloudy 53 11.5 49 9.7 89 89 NNW 12 19 29.87 1011 10 16 N/A
9:55 am 09:55 Cloudy 53 11.5 49 9.6 88 88 NNW 13 20 29.86 1011 10 16 N/A
10:15 am 10:15 Cloudy 53 11.6 50 9.9 89 89 NW 13 20 29.86 1011 10 16 N/A
10:35 am 10:35 Cloudy 54 12 50 10 88 88 NNW 12 19 29.87 1011 10 16 N/A
10:55 am 10:55 Cloudy 54 12 49 9.7 86 86 NNW 10 17 29.87 1011 10 16 N/A
11:15 am 11:15 Cloudy 54 12.1 49 9.5 84 84 NW 10 17 29.88 1012 10 16 N/A
11:35 am 11:35 Cloudy 54 12 49 9.6 85 85 NNW 9 15 29.90 1012 10 16 N/A
11:55 am 11:55 Cloudy 54 12 50 9.8 87 87 NNW 12 19 29.90 1012 10 16 N/A
12:15 pm 12:15 Cloudy 53 11.7 50 9.9 89 89 N 13 20 29.90 1012 10 16 N/A
12:35 pm 12:35 Cloudy 53 11.5 50 10 91 91 NNW 10 17 29.90 1013 10 16 N/A
12:55 pm 12:55 Cloudy 53 11.4 51 10.4 94 94 NNW 10 17 29.90 1013 7 11 N/A
1:15 pm 13:15 Cloudy 54 12.2 51 10.6 90 90 NNW 9 15 29.88 1012 10 16 N/A
1:35 pm 13:35 Cloudy 54 12 51 10.5 91 91 NW 10 17 29.89 1012 10 16 N/A
1:55 pm 13:55 Cloudy 54 12.3 52 11 92 92 NW 10 17 29.87 1012 7 11 N/A
2:15 pm 14:15 Cloudy 56 13.3 52 11.1 87 87 NNW 10 17 29.85 1011 10 16 N/A
2:35 pm 14:35 Cloudy 56 13.6 53 11.6 88 88 NW 10 17 29.85 1011 10 16 N/A
2:55 pm 14:55 Cloudy 56 13.5 51 10.8 84 84 NW 9 15 29.85 1011 10 16 N/A
3:15 pm 15:15 Cloudy 58 14.5 52 10.9 79 79 NW 7 11 29.83 1010 10 16 N/A
3:35 pm 15:35 Cloudy 59 14.8 51 10.8 77 77 NW 7 11 29.83 1010 10 16 N/A
3:55 pm 15:55 Cloudy 59 14.8 50 9.9 73 73 NNW 9 15 29.84 1011 10 16 N/A
4:15 pm 16:15 Cloudy 59 15.1 49 9.7 70 70 NW 9 15 29.84 1010 10 16 N/A
4:35 pm 16:35 Cloudy 59 15.1 48 8.7 66 66 NNW 9 15 29.84 1010 10 16 N/A
4:55 pm 16:55 Cloudy 60 15.5 49 9.5 68 68 N 8 13 29.83 1010 10 16 N/A
5:15 pm 17:15 Cloudy 60 15.7 49 9.3 66 66 N 9 15 29.82 1010 10 16 N/A
5:55 pm 17:55 Cloudy 60 15.5 50 9.9 69 69 N 8 13 29.83 1010 10 16 N/A
6:15 pm 18:15 Cloudy 60 15.5 49 9.2 66 66 NNW 9 15 29.83 1010 10 16 N/A
6:35 pm 18:35 Cloudy 60 15.5 50 9.9 69 69 N 8 13 29.84 1010 10 16 N/A
7:00 pm 19:00 Cloudy 59 14.9 48 9 68 68 N 8 13 29.84 1011 10 16 N/A
7:15 pm 19:15 Cloudy 58 14.5 49 9.6 73 73 N 9 15 29.84 1011 10 16 N/A
7:30 pm 19:30 Cloudy 58 14.6 49 9.7 73 73 N 7 11 29.84 1011 10 16 N/A
8:00 pm 20:00 Cloudy 58 14.5 49 9.5 72 72 NNW 6 9 29.85 1011 10 16 N/A
8:15 pm 20:15 Cloudy 58 14.5 49 9.5 72 72 NNW 6 9 29.85 1011 10 16 N/A
8:35 pm 20:35 Cloudy 58 14.3 50 9.8 75 75 NW 3 6 29.87 1011 10 16 N/A
8:55 pm 20:55 Cloudy 57 13.8 51 10.4 80 80 N N/A 29.87 1011 10 16 N/A
9:15 pm 21:15 Cloudy 57 13.7 50 10.1 79 79 WNW 5 7 29.87 1012 10 16 N/A
9:35 pm 21:35 Cloudy 56 13.2 51 10.7 85 85 W 6 9 29.88 1012 10 16 N/A
9:55 pm 21:55 Cloudy 55 13 52 11 88 88 W 5 7 29.89 1012 10 16 N/A
10:15 pm 22:15 Cloudy 55 13 52 11.2 89 89 W 6 9 29.89 1012 10 16 N/A
10:35 pm 22:35 Cloudy 55 13 52 11.2 89 89 W 5 7 29.89 1012 10 16 N/A
10:55 pm 22:55 Cloudy 55 12.8 51 10.7 87 87 W 6 9 29.90 1012 10 16 N/A
11:15 pm 23:15 Cloudy 55 13 50 10.2 83 83 W 6 9 29.90 1012 10 16 N/A
11:35 pm 23:35 Cloudy 56 13.2 51 10.7 85 85 W 7 11 29.89 1012 10 16 N/A
11:55 pm 23:55 Cloudy 55 13 51 10.8 87 87 W 7 11 29.90 1012 10 16 N/A

Powered by AerisWeather